Simultaneous Nadir Overpasses (SNOs) Predictions

Prediction of SNOs between GOES-14 and NOAA-20 Satellite Orbit:

Table of predicted SNOs for the next 14.0 days since TLE Epoch: 6/28/2019
Index Date Time (GOES-14) GOES-14 Lat,Lon NOAA-20 Lat,Lon Distance(km) Time Diff (sec)
1 06/29/2019 08:20:16 -0.10,-104.56 -0.32,-103.58 111.95 80
2 06/30/2019 20:39:33 0.13,-104.74 -0.82,-108.89 473.62 80
3 07/01/2019 20:23:27 0.12,-104.74 0.18,-104.35 43.81 80
4 07/04/2019 08:23:49 -0.14,-104.58 -0.01,-105.09 58.11 80
5 07/05/2019 08:07:44 -0.12,-104.59 -1.00,-100.55 459.30 80
6 07/06/2019 20:27:01 0.15,-104.76 -0.08,-105.88 126.42 80
7 07/07/2019 20:10:55 0.14,-104.77 0.92,-101.34 391.06 80
8 07/09/2019 08:30:02 -0.17,-104.60 0.31,-106.60 227.87 80
9 07/10/2019 08:13:57 -0.15,-104.61 -0.74,-102.07 289.73 80
10 07/11/2019 20:33:14 0.19,-104.79 -0.39,-107.39 295.64 80




NCC Satellite Simultaneous Nadir Overpasses (SNOs) Prediction Service
